User: anonymous   Login
Location: Unspecified
(0.0000°N, 0.0000°E)
Time: 14:46:35
(UTC+00:00)
Language:

EXOCUBE - Orbit

View from above orbital plane
View from above orbital plane
View from above satellite
View from above satellite

Ground track
Ground track

The orbit data is extracted from the following two-line orbital elements,

1 40380U 15003E   17202.66024207 +.00001024 +00000-0 +52306-4 0  9990
2 40380 099.1292 029.8433 0144537 260.2322 098.2556 15.11530819135995
Epoch (UTC): 21 July 2017 15:50:44
Eccentricity: 0.0144537
inclination: 99.1292°
perigee height: 431 km
apogee height: 631 km
right ascension of ascending node: 29.8433°
argument of perigee: 260.2322°
revolutions per day: 15.11530819
mean anomaly at epoch: 98.2556°
orbit number at epoch: 13599

The dashed part of the orbit path shows where the satellite is in the earth's shadow,  

DLR